EOS-06

operational
NORAD ID: 54361 Int'l Des: 2022-158 Owner: ISRO Country: IN
LEOCIRCULARRETROGRADESSO

About EOS-06

Description loading...

Live Position

Loading 3D Globe...

Upcoming Passes

Altitude History

Altitude vs Time

uPlot chart will show altitude changes over time

Two-Line Element Set

1 54361U 22158A 26062.22639843 .00000412 00000-0 12526-3 0 9996
2 54361 98.3491 161.8638 0000286 30.1283 329.9926 14.46998427172511
Epoch: Mar 3, 2026 • Age: 14 hours

Current Status

Altitude 748.8 km
Velocity 7.49 km/s
Sub-Earth Point 80.36°N, 27.59°E
Launch Date Nov 26, 2022
Age 3.2 years
Type other

Technical Details

Classification Payload
Mass 1117.00 kg
Dry Mass 950.00 kg
Total Mass 1117.00 kg
Length 3.90 m
Diameter 2.00 m
Span 11.70 m
Shape Box + Hex Box+3 pan
Manufacturer ISAC/HAL
Bus Type IRS
Phase Status In Orbit
Owner/State ISRO/IN

Large Constellations

Loading constellations...